Simultaneous Nadir Overpasses (SNOs) Predictions

Prediction of SNOs between METOP-B and TERRA Satellite Orbit:

Table of predicted SNOs for the next 14.0 days since TLE Epoch: 12/1/2012
Index Date (METOP-B) Time (METOP-B) METOP-B Lat,Lon Date (TERRA) Time (TERRA) TERRA Lat,Lon Distance(km) Time Diff (sec)
1 12/02/2012 03:03:53 81.27,-179.33 12/02/2012 03:04:16 81.27,-179.25 1.59 23
2 12/02/2012 03:54:34 -81.27, -11.74 12/02/2012 03:53:43 -81.27, -11.71 0.64 51
3 12/04/2012 22:38:17 81.27,-112.99 12/04/2012 22:38:32 81.26,-112.97 0.29 15
4 12/04/2012 23:28:57 -81.28, 55.02 12/04/2012 23:27:58 -81.28, 54.96 1.17 59
5 12/07/2012 18:12:40 81.27, -46.36 12/07/2012 18:12:47 81.27, -46.43 1.12 7
6 12/07/2012 19:03:21 -81.27, 121.28 12/07/2012 19:02:14 -81.27, 121.15 2.37 67
7 12/10/2012 12:56:24
